Location: Newark
(45.8667°N, 9.7333°E)
Time: 04:33:10
(UTC+00:00)

Vanguard 2 Rocket - Visible Passes

Search period start: 29 January 2020 00:00
Search period end: 08 February 2020 00:00
Orbit: 554 x 3326 km, 32.9° (Epoch: 28 January)

Date Brightness Start Highest point End Pass type
(mag) Time Alt. Az. Time Alt. Az. Time Alt. Az.
29 Jan 8.7 03:46:35 13° SSE 03:46:35 13° SSE 03:48:00 10° SE visible
29 Jan 8.5 05:54:03 10° SW 05:57:39 20° S 06:02:29 10° SE visible
30 Jan 8.2 04:56:18 13° SSW 04:58:31 18° S 05:02:14 10° SE visible
31 Jan 8.4 04:00:12 15° SSE 04:00:12 15° SSE 04:02:09 10° SE visible
31 Jan 8.6 06:08:35 10° SW 06:11:37 16° S 06:15:24 10° SSE visible
01 Feb 8.3 05:09:54 10° SW 05:12:25 16° S 05:15:33 10° SE visible
02 Feb 8.3 04:13:47 15° S 04:13:47 15° S 04:15:53 10° SE visible
03 Feb 8.5 05:24:43 10° SSW 05:26:20 12° S 05:28:06 10° SSE visible
04 Feb 8.3 04:27:23 12° S 04:27:23 12° S 04:29:05 10° SSE visible
